Location: Bourg-d�Oueil
(42.8588°N, 0.4991°E)
Time: 18:22:48
(UTC+00:00)

Cosmos 2219 Rocket - Pass Details

Date: 16 June 2021
Orbit: 829 x 845 km, 71.0° (Epoch: 02 August)

Event Time Altitude Azimuth Distance (km) Brightness Sun altitude
Exits shadow 21:24:26 22° 140° (SE) 1,759 3.2 -14.8°
Maximum altitude 21:26:39 29° 103° (ESE) 1,508 3.1 -15.1°
Drops below altitude 10° 21:31:27 10° 45° (NE) 2,472 4.7 -15.6°
Sets 21:34:10 0° 35° (NE) 3,411 5.6 -15.9°
